カタログに戻る

STARLINK-35565

運用中通信VLEO
NORAD 66803·PAYLOAD·🇺🇸 United States

打ち上げ Dec 1, 2025 から Cape Canaveral Space Force Station

Loading…

次のパス (今後24時間)

TLE

最新Source: CelesTrak SupGP

元期: Sep 14, 2026, 23:01 UTC

1 66803C 25278N   26257.95951389 -.00028446  00000+0 -10307-2 0  2573
2 66803  43.0018 125.7385 0001467 273.7859  43.1933 15.27581422    12

AllMySatでSTARLINK-35565をリアルタイム追跡

Download on the App Store